Time,TemperatureF,DewpointF,PressureIn,WindDirection,WindDirectionDegrees,WindSpeedMPH,WindSpeedGustMPH,Humidity,HourlyPrecipIn,Conditions,Clouds,dailyrainin,SoftwareType,DateUTC
2013-01-29 00:15:00,53.1,52.8,29.91,SW,219,1.0,9.0,99,0.00,OVC,OVC,0.00,WeatherDisplay:10.37,2013-01-29 05:15:00,
2013-01-29 00:30:00,52.8,52.5,29.91,SW,231,1.0,6.0,99,0.00,OVC,OVC,0.00,WeatherDisplay:10.37,2013-01-29 05:30:00,
2013-01-29 00:45:00,52.6,52.3,29.91,SW,234,0.0,4.0,99,0.00,OVC,OVC,0.00,WeatherDisplay:10.37,2013-01-29 05:45:00,
2013-01-29 01:00:00,52.3,52.0,29.91,SW,225,1.0,6.0,99,0.00,OVC,OVC,0.00,WeatherDisplay:10.37,2013-01-29 06:00:00,
2013-01-29 01:15:00,51.9,51.6,29.91,South,187,0.0,5.0,99,0.00,OVC,OVC,0.00,WeatherDisplay:10.37,2013-01-29 06:15:00,
2013-01-29 01:30:00,51.0,50.7,29.91,South,187,0.0,3.0,99,0.00,OVC,OVC,0.00,WeatherDisplay:10.37,2013-01-29 06:30:00,
2013-01-29 01:45:00,50.4,50.1,29.91,SSW,200,0.0,5.0,99,0.00,OVC,OVC,0.00,WeatherDisplay:10.37,2013-01-29 06:45:00,
2013-01-29 02:00:00,50.1,49.8,29.91,SSW,200,0.0,1.0,99,0.00,OVC,OVC,0.00,WeatherDisplay:10.37,2013-01-29 07:00:00,
2013-01-29 02:15:00,50.0,49.7,29.91,SSW,200,0.0,0.0,99,0.00,OVC,OVC,0.00,WeatherDisplay:10.37,2013-01-29 07:15:00,
2013-01-29 02:30:00,50.1,49.8,29.91,SSW,200,0.0,1.0,99,0.00,OVC,OVC,0.00,WeatherDisplay:10.37,2013-01-29 07:30:00,
2013-01-29 02:45:00,50.1,49.8,29.91,SSW,200,0.0,0.0,99,0.00,OVC,OVC,0.00,WeatherDisplay:10.37,2013-01-29 07:45:00,
2013-01-29 03:00:00,50.0,49.7,29.91,SSW,200,0.0,1.0,99,0.00,OVC,OVC,0.00,WeatherDisplay:10.37,2013-01-29 08:00:00,
2013-01-29 03:15:00,49.7,49.4,29.91,SSW,200,0.0,1.0,99,0.00,FEW,FEW,0.00,WeatherDisplay:10.37,2013-01-29 08:15:00,
2013-01-29 03:30:00,49.7,49.4,29.91,SSW,200,0.0,3.0,99,0.00,FEW,FEW,0.00,WeatherDisplay:10.37,2013-01-29 08:30:00,
2013-01-29 03:45:00,49.6,49.3,29.91,SSW,200,0.0,3.0,99,0.00,FEW,FEW,0.00,WeatherDisplay:10.37,2013-01-29 08:45:00,
2013-01-29 04:00:00,49.5,49.2,29.91,SSW,200,0.0,3.0,99,0.00,FEW,FEW,0.00,WeatherDisplay:10.37,2013-01-29 09:00:00,
2013-01-29 04:15:00,49.4,49.1,29.91,SSW,200,0.0,1.0,99,0.00,OVC,OVC,0.00,WeatherDisplay:10.37,2013-01-29 09:15:00,
2013-01-29 04:30:00,49.3,49.0,29.91,SSW,200,0.0,1.0,99,0.00,OVC,OVC,0.00,WeatherDisplay:10.37,2013-01-29 09:30:00,
2013-01-29 04:45:00,49.0,48.7,29.91,SSW,200,0.0,3.0,99,0.00,OVC,OVC,0.00,WeatherDisplay:10.37,2013-01-29 09:45:00,
2013-01-29 05:00:00,48.3,48.0,29.91,SSW,200,0.0,1.0,99,0.00,OVC,OVC,0.00,WeatherDisplay:10.37,2013-01-29 10:00:00,
2013-01-29 05:15:00,47.6,47.3,29.91,SSW,200,0.0,2.0,99,0.00,OVC,OVC,0.00,WeatherDisplay:10.37,2013-01-29 10:15:00,
2013-01-29 05:30:00,47.1,46.8,29.91,SSW,200,0.0,0.0,99,0.00,OVC,OVC,0.00,WeatherDisplay:10.37,2013-01-29 10:30:00,
2013-01-29 05:45:00,46.7,46.4,29.91,SSW,200,0.0,1.0,99,0.00,OVC,OVC,0.00,WeatherDisplay:10.37,2013-01-29 10:45:00,
2013-01-29 06:00:00,46.5,46.2,29.91,SSW,200,0.0,0.0,99,0.00,OVC,OVC,0.00,WeatherDisplay:10.37,2013-01-29 11:00:00,
2013-01-29 06:15:00,46.3,46.0,29.91,SSW,200,0.0,0.0,99,0.00,FEW,FEW,0.00,WeatherDisplay:10.37,2013-01-29 11:15:00,
2013-01-29 06:30:00,45.9,45.6,29.91,SSW,200,0.0,0.0,99,0.00,FEW,FEW,0.00,WeatherDisplay:10.37,2013-01-29 11:30:00,
2013-01-29 06:45:00,45.6,45.3,29.91,SSW,200,0.0,0.0,99,0.00,FEW,FEW,0.00,WeatherDisplay:10.37,2013-01-29 11:45:00,
2013-01-29 07:00:00,45.3,45.0,29.91,SSW,200,0.0,1.0,99,0.00,FEW,FEW,0.00,WeatherDisplay:10.37,2013-01-29 12:00:00,
2013-01-29 07:15:00,45.2,44.9,29.91,SSW,200,0.0,0.0,99,0.00,CLR,CLR,0.00,WeatherDisplay:10.37,2013-01-29 12:15:00,
2013-01-29 07:30:00,45.1,44.8,29.91,SSW,200,0.0,1.0,99,0.00,CLR,CLR,0.00,WeatherDisplay:10.37,2013-01-29 12:30:00,
2013-01-29 07:45:00,45.0,44.7,29.91,SSW,200,0.0,0.0,99,0.00,CLR,CLR,0.00,WeatherDisplay:10.37,2013-01-29 12:45:00,
2013-01-29 08:00:00,44.5,44.2,29.91,South,190,0.0,0.0,99,0.00,CLR,CLR,0.00,WeatherDisplay:10.37,2013-01-29 13:00:00,
2013-01-29 08:15:00,44.7,44.4,29.91,South,191,0.0,0.0,99,0.00,FEW,FEW,0.00,WeatherDisplay:10.37,2013-01-29 13:15:00,
2013-01-29 08:30:00,45.1,44.8,29.91,SSW,196,0.0,1.0,99,0.00,FEW,FEW,0.00,WeatherDisplay:10.37,2013-01-29 13:30:00,
2013-01-29 08:45:00,45.7,45.4,29.91,SSW,197,0.0,0.0,99,0.00,FEW,FEW,0.00,WeatherDisplay:10.37,2013-01-29 13:45:00,
2013-01-29 09:00:00,46.6,46.3,29.91,SSW,197,0.0,0.0,99,0.00,FEW,FEW,0.00,WeatherDisplay:10.37,2013-01-29 14:00:00,
2013-01-29 09:15:00,47.5,47.3,29.91,SSW,197,0.0,1.0,99,0.00,SCT,SCT,0.00,WeatherDisplay:10.37,2013-01-29 14:15:00,
2013-01-29 09:30:00,48.2,47.9,29.91,SSW,197,0.0,0.0,99,0.00,SCT,SCT,0.00,WeatherDisplay:10.37,2013-01-29 14:30:00,
2013-01-29 09:45:00,48.9,48.7,29.91,SSW,196,1.0,4.0,99,0.00,SCT,SCT,0.00,WeatherDisplay:10.37,2013-01-29 14:45:00,
2013-01-29 10:00:00,49.8,49.5,29.91,SE,125,1.0,7.0,99,0.00,SCT,SCT,0.00,WeatherDisplay:10.37,2013-01-29 15:00:00,
2013-01-29 10:15:00,51.1,50.8,29.91,ESE,114,5.0,6.0,99,0.00,OVC,OVC,0.00,WeatherDisplay:10.37,2013-01-29 15:15:00,
2013-01-29 10:30:00,52.5,52.2,29.91,ESE,108,3.0,8.0,99,0.00,OVC,OVC,0.00,WeatherDisplay:10.37,2013-01-29 15:30:00,
2013-01-29 10:45:00,53.8,53.6,29.91,SE,129,0.0,5.0,99,0.00,OVC,OVC,0.00,WeatherDisplay:10.37,2013-01-29 15:45:00,
2013-01-29 11:00:00,55.2,54.9,29.91,South,185,2.0,6.0,99,0.00,OVC,OVC,0.00,WeatherDisplay:10.37,2013-01-29 16:00:00,
2013-01-29 11:15:00,56.6,56.0,29.91,SSE,149,1.0,5.0,98,0.00,SCT,SCT,0.00,WeatherDisplay:10.37,2013-01-29 16:15:00,
2013-01-29 11:30:00,57.1,55.7,29.91,SSW,195,0.0,6.0,95,0.00,SCT,SCT,0.00,WeatherDisplay:10.37,2013-01-29 16:30:00,
2013-01-29 11:45:00,58.1,57.0,29.91,SE,131,0.0,7.0,96,0.00,SCT,SCT,0.00,WeatherDisplay:10.37,2013-01-29 16:45:00,
2013-01-29 12:00:00,58.4,57.3,29.91,South,188,0.0,6.0,96,0.00,SCT,SCT,0.00,WeatherDisplay:10.37,2013-01-29 17:00:00,
2013-01-29 12:15:00,59.8,58.4,29.91,ESE,121,0.0,5.0,95,0.00,FEW,FEW,0.00,WeatherDisplay:10.37,2013-01-29 17:15:00,
2013-01-29 12:30:00,62.0,59.7,29.91,East,96,2.0,5.0,92,0.00,FEW,FEW,0.00,WeatherDisplay:10.37,2013-01-29 17:30:00,
2013-01-29 12:45:00,62.8,59.5,29.91,ESE,115,0.0,8.0,89,0.00,FEW,FEW,0.00,WeatherDisplay:10.37,2013-01-29 17:45:00,
2013-01-29 13:00:00,64.4,61.1,29.91,SE,134,1.0,5.0,89,0.00,FEW,FEW,0.00,WeatherDisplay:10.37,2013-01-29 18:00:00,
2013-01-29 13:15:00,64.9,61.3,29.91,East,93,0.0,5.0,88,0.00,SCT,SCT,0.00,WeatherDisplay:10.37,2013-01-29 18:15:00,
2013-01-29 13:30:00,63.9,59.6,29.91,SSW,203,0.0,5.0,86,0.00,SCT,SCT,0.00,WeatherDisplay:10.37,2013-01-29 18:30:00,
2013-01-29 13:45:00,65.0,61.4,29.91,SSE,148,1.0,5.0,88,0.00,SCT,SCT,0.00,WeatherDisplay:10.37,2013-01-29 18:45:00,
2013-01-29 14:00:00,65.0,60.4,29.91,SW,215,3.0,8.0,85,0.00,SCT,SCT,0.00,WeatherDisplay:10.37,2013-01-29 19:00:00,
2013-01-29 14:15:00,65.4,60.8,29.91,SW,221,3.0,7.0,85,0.00,BKN,BKN,0.00,WeatherDisplay:10.37,2013-01-29 19:15:00,
2013-01-29 14:30:00,66.8,62.1,29.91,South,173,2.0,5.0,85,0.00,BKN,BKN,0.00,WeatherDisplay:10.37,2013-01-29 19:30:00,
2013-01-29 23:30:00,56.4,56.1,29.91,South,172,0.0,3.0,99,0.00,BKN,BKN,0.00,WeatherDisplay:10.37,2013-01-30 04:30:00,
2013-01-29 23:45:00,56.0,55.8,29.91,South,172,0.0,1.0,99,0.00,BKN,BKN,0.00,WeatherDisplay:10.37,2013-01-30 04:45:00,